Theta_e
342 339 341 346 346 345 344 348 350 350 349 349 350 350 350 350 350 349 349 346 345 352 352 350 351 348 345 348 347 347 346 346 346 346 345 345 344 344 343 342 342 342 341 341 341 340 341 341 342 342 342 342 342 344 345 342 341 340 339 339 340 338
339 340 342 344 345 341 340 347 349 351 352 350 350 350 351 350 350 350 346 348 350 351 351 351 352 345 352 349 348 347 346 346 346 345 345 344 344 343 343 342 342 342 341 339 339 340 341 340 341 341 342 342 344 344 345 343 342 340 339 340 340 339
337 340 342 344 346 344 342 345 347 349 348 348 349 349 348 348 348 347 348 347 349 349 350 350 351 349 349 345 348 342 342 344 346 346 345 345 344 343 343 342 342 341 339 336 338 337 338 339 341 340 339 342 343 343 344 344 342 341 339 339 339 337
337 339 339 341 344 345 347 345 344 343 348 347 349 347 347 346 346 347 346 347 348 348 349 350 344 345 344 349 347 343 342 342 342 342 345 344 344 344 343 341 341 340 340 340 338 336 335 336 337 340 340 340 341 342 343 343 340 341 341 338 338 337
336 339 341 343 342 342 339 335 334 337 343 345 344 347 346 345 345 346 346 347 346 347 347 349 350 348 346 348 348 348 348 347 347 346 343 341 342 344 344 344 344 342 340 338 336 337 337 336 338 337 339 341 342 343 342 343 341 341 341 340 341 336
337 337 340 340 342 342 342 339 334 337 340 342 344 345 345 345 345 345 345 345 345 346 347 347 348 347 345 345 346 347 347 347 347 346 347 346 342 342 342 343 342 340 339 340 339 338 338 337 336 336 338 341 342 343 341 341 341 341 341 340 341 336
335 335 334 340 340 338 340 339 340 338 340 343 345 343 342 343 343 344 344 345 344 344 344 344 343 343 344 344 345 346 345 347 346 346 347 347 344 343 341 341 342 340 339 340 338 338 337 336 336 334 337 336 340 341 342 340 340 340 340 340 340 336
336 334 334 336 339 340 341 342 339 341 343 345 343 342 343 341 343 344 344 344 345 345 344 342 341 340 341 342 343 344 345 347 347 347 347 346 344 343 341 341 343 339 338 338 335 336 334 334 335 337 335 336 337 342 342 340 341 341 340 340 339 338
336 334 335 337 337 341 343 340 340 341 344 344 343 343 342 341 342 343 344 344 345 344 343 342 341 341 340 342 342 342 344 345 346 347 346 345 344 343 341 340 341 339 339 339 337 337 335 335 336 338 336 335 337 339 340 341 340 338 339 339 340 339
336 336 336 335 335 337 341 343 344 344 344 344 343 342 341 341 342 343 344 345 345 345 344 343 341 340 340 341 342 342 342 342 343 344 345 343 344 342 340 340 340 339 337 337 337 336 336 335 334 336 336 337 337 339 341 339 339 339 339 339 340 340
336 337 336 334 337 339 337 341 341 344 343 343 343 341 341 342 341 343 344 345 344 344 345 345 342 340 342 342 341 340 340 342 342 342 343 342 345 345 342 340 339 339 338 337 335 336 335 336 334 334 336 335 337 339 339 340 340 339 338 339 340 340
335 337 338 337 338 339 341 341 342 342 343 343 344 342 341 341 341 342 343 343 344 343 344 345 343 339 339 338 339 340 341 342 342 342 342 342 343 345 343 341 341 341 340 337 336 335 336 335 335 335 336 335 336 337 338 338 339 338 337 337 338 340
335 335 336 336 337 339 340 340 341 341 342 342 342 342 342 343 343 342 342 342 339 341 342 343 338 335 336 335 336 339 341 340 340 340 342 341 341 344 344 342 341 340 338 337 336 335 334 336 336 336 337 336 338 337 337 337 339 339 337 336 337 336
337 335 335 334 335 337 339 340 341 341 341 341 342 342 342 343 342 341 341 341 340 339 341 336 333 335 337 336 338 339 339 338 339 340 339 340 340 340 341 341 339 338 337 337 336 337 338 337 336 336 337 336 338 339 338 336 338 339 339 337 338 334
340 338 335 334 335 337 338 340 339 338 339 339 340 340 340 340 340 340 340 340 340 341 340 334 335 336 337 338 339 339 338 338 340 340 336 336 337 332 332 335 337 337 338 338 336 337 338 337 337 334 336 338 335 335 337 336 337 336 336 338 339 336
340 338 338 339 341 340 339 339 340 339 341 341 339 339 341 340 339 339 338 337 338 340 340 336 336 337 336 338 338 338 337 338 338 337 337 337 336 333 334 334 337 338 336 335 335 335 336 336 336 334 334 336 335 335 333 333 333 332 333 336 336 336
337 339 341 341 341 341 340 339 339 339 338 340 339 339 338 337 336 335 336 336 337 339 338 339 339 338 338 337 336 337 337 338 338 337 336 337 337 338 338 333 335 334 336 335 334 333 334 335 334 334 334 334 334 334 333 335 335 333 332 333 333 332
339 340 340 340 340 339 338 337 337 337 338 337 337 338 338 337 336 335 336 335 336 337 338 339 340 340 339 337 336 336 336 337 338 337 337 338 337 338 338 338 331 332 333 334 334 334 333 334 333 332 332 332 334 334 335 336 336 335 335 333 333 332
339 339 339 339 338 337 337 336 336 336 336 337 338 337 337 336 336 336 335 335 336 338 338 339 338 338 337 335 335 335 336 337 337 336 337 336 336 336 336 336 330 328 331 334 335 335 334 333 332 331 331 330 332 332 333 334 335 334 333 334 333 331
337 338 338 338 337 336 336 334 333 334 334 335 336 335 335 334 335 335 336 336 337 338 336 338 338 338 337 335 334 334 334 336 337 336 335 334 334 333 333 333 330 328 327 329 332 333 333 330 330 331 330 331 332 334 331 332 333 332 333 333 331 331
336 337 337 337 337 337 335 334 335 335 333 333 332 333 332 333 334 335 335 335 336 336 336 337 337 337 336 334 333 334 335 335 336 336 336 334 333 333 333 332 330 330 328 328 328 330 331 331 328 327 328 328 329 332 331 331 330 332 332 330 328 327
334 336 337 339 338 338 338 338 336 333 332 331 331 330 329 331 332 333 334 335 335 336 335 335 336 336 335 334 334 334 335 335 335 334 333 333 333 332 333 333 332 329 331 329 328 330 330 330 326 326 325 324 325 328 328 330 329 328 329 326 326 327
334 335 336 338 338 336 335 335 336 332 330 325 325 328 327 328 330 332 333 335 335 336 336 335 336 336 336 335 335 334 333 334 333 332 332 332 332 332 333 332 332 329 326 329 329 330 330 331 326 326 330 326 322 322 325 329 328 327 327 328 328 326
333 333 334 337 336 334 332 331 331 330 329 330 325 325 328 328 329 330 329 331 334 335 336 336 336 337 337 335 335 334 334 334 334 334 333 331 332 331 332 332 332 330 329 324 324 325 330 329 331 327 320 321 322 321 315 321 322 325 328 325 323 322
331 331 333 333 332 331 329 329 327 327 327 325 326 326 327 326 329 329 328 329 329 332 335 335 336 337 336 335 334 335 334 334 333 333 333 332 331 330 331 332 333 332 331 328 324 325 326 329 331 330 326 319 317 319 318 321 323 321 326 320 319 318
329 330 332 332 331 330 330 328 327 326 324 325 322 323 323 323 324 326 323 325 325 328 332 335 335 336 335 333 332 333 333 333 333 333 333 333 331 330 330 331 333 333 332 333 330 325 323 327 329 329 331 330 328 320 320 321 321 314 322 324 318 316
327 329 332 331 330 331 330 330 330 328 327 326 322 321 322 324 324 321 324 326 325 327 330 334 335 336 336 335 334 333 334 334 334 333 333 332 331 331 329 330 332 333 332 331 330 326 324 324 326 327 327 328 327 328 330 322 318 318 314 316 316 315
325 325 328 330 330 331 329 328 327 326 326 325 324 322 323 323 323 323 324 324 326 327 327 331 334 334 336 335 335 334 334 334 333 333 331 331 331 330 331 331 331 332 332 332 331 328 325 325 324 323 327 326 326 328 329 328 324 319 315 309 308 312
322 323 324 326 327 328 329 329 328 326 323 323 324 323 323 322 321 324 323 324 325 325 326 328 329 332 333 334 334 334 335 334 334 333 331 330 332 330 330 330 330 330 332 332 333 331 327 325 326 323 324 325 327 326 326 327 327 323 312 307 308 309
319 321 323 325 326 327 327 327 327 327 325 323 323 323 323 321 322 324 323 323 324 325 325 327 327 328 329 330 332 333 333 333 333 331 329 330 329 330 330 331 331 332 333 331 331 330 328 327 327 327 327 325 322 320 317 315 314 310 313 311 307 309
319 319 321 324 325 324 325 327 327 327 327 324 324 324 321 321 320 322 322 322 323 323 325 324 325 326 325 327 328 328 328 328 328 327 326 327 328 327 328 328 329 330 331 330 330 329 327 327 328 326 322 321 319 318 316 314 312 311 308 309 309 309
319 321 321 322 323 323 323 324 326 327 326 326 325 323 323 321 321 321 322 321 321 323 323 323 324 325 325 325 326 325 325 325 325 326 326 326 325 325 325 326 327 328 328 328 329 328 327 325 323 321 320 319 318 317 315 312 310 311 310 308 310 310
319 320 322 323 322 323 323 323 324 325 325 325 325 325 324 322 322 321 321 322 322 322 322 323 324 324 323 324 325 325 324 324 324 324 324 323 322 322 324 325 326 326 326 326 325 324 321 321 321 317 317 318 315 313 312 314 313 311 313 313 312 309
318 318 319 321 324 323 323 323 324 324 324 324 323 324 324 322 321 321 322 323 323 323 323 325 324 323 321 321 322 323 323 323 322 321 321 321 321 321 323 323 324 323 322 320 320 321 319 320 320 320 319 315 315 314 314 315 314 313 312 310 309 309
318 317 319 320 322 322 322 322 323 323 323 323 322 322 322 322 321 320 319 321 322 324 324 323 322 321 320 321 321 322 322 321 320 320 320 320 320 320 321 319 320 320 318 318 319 319 318 318 317 316 319 316 315 314 313 313 314 313 312 313 311 311
320 319 319 320 321 322 322 323 322 321 321 322 322 322 320 319 318 318 319 319 319 322 322 321 320 320 319 320 321 320 319 319 318 319 319 319 319 319 320 319 317 318 316 316 318 318 317 317 317 318 317 317 314 312 315 313 313 314 313 314 313 312
323 322 320 321 321 324 325 323 323 324 323 323 323 322 322 321 320 318 316 317 319 320 321 321 320 320 320 320 320 320 320 318 318 318 319 318 317 318 319 319 318 317 315 316 316 315 316 315 316 315 315 317 314 313 313 315 314 314 315 315 314 314
Wind_Speed
8 7 11 10 9 6 4 9 10 10 11 11 11 11 10 10 9 9 9 7 6 5 5 5 5 6 8 7 6 7 9 9 9 9 9 8 9 9 10 11 10 9 9 8 8 8 5 2 2 3 3 2 5 5 2 2 2 3 2 3 3 3
7 11 11 8 8 9 9 7 7 7 8 10 10 11 10 8 8 8 8 7 6 4 4 4 4 5 4 6 6 7 8 9 9 9 8 7 7 8 9 10 10 9 8 7 5 3 3 3 4 3 4 2 4 3 2 2 2 2 2 2 2 5
5 5 7 8 8 7 8 6 5 6 7 8 9 9 8 8 7 7 7 7 5 3 4 4 4 5 4 5 5 3 3 8 9 9 8 8 8 7 7 9 9 9 8 6 3 4 2 1 2 3 1 1 1 2 1 1 2 1 2 2 2 6
4 6 7 6 6 7 4 6 3 5 5 5 5 7 7 7 7 6 5 5 4 4 4 3 6 8 6 4 4 6 3 3 5 6 9 6 7 7 7 7 9 8 5 3 3 3 3 2 1 1 1 0 1 0 2 2 2 1 1 2 1 5
7 2 4 8 8 6 6 7 5 4 4 5 5 6 6 6 5 5 6 5 5 4 4 4 4 4 3 3 3 3 3 3 3 4 2 2 3 4 3 4 3 2 3 3 3 3 2 2 1 1 1 1 1 1 2 2 1 1 1 1 2 3
6 6 3 3 5 5 7 6 6 4 2 5 7 6 5 5 6 6 5 5 5 5 4 4 4 4 3 3 3 2 2 3 3 2 2 1 1 2 3 3 2 2 2 2 3 3 3 2 2 1 1 2 1 0 2 2 1 1 1 1 3 3
7 6 4 2 5 5 6 6 6 5 7 6 5 6 6 5 6 6 6 6 6 5 5 5 5 5 4 3 3 2 2 2 3 3 2 2 2 2 2 3 2 2 2 1 3 3 3 3 2 1 0 1 1 0 1 1 1 1 1 1 4 3
6 6 5 7 2 4 5 5 5 6 7 6 6 6 5 5 5 6 6 6 6 5 5 5 5 5 4 3 3 3 3 3 3 4 4 3 2 2 2 2 3 2 2 2 3 3 3 3 2 1 1 1 1 1 0 0 2 2 1 1 2 4
5 7 1 1 5 3 3 6 7 8 6 6 5 5 5 5 5 5 6 6 5 4 4 4 4 4 4 4 4 4 3 3 3 4 5 4 3 2 2 2 2 3 2 2 3 3 3 3 2 1 2 2 1 1 0 1 2 2 2 2 1 5
7 6 5 5 4 5 5 6 6 6 5 6 5 4 5 5 5 5 5 5 5 4 4 4 4 5 5 4 3 3 3 4 4 3 4 4 3 3 3 3 3 3 3 3 3 3 3 4 3 1 1 0 1 2 3 2 1 2 2 2 2 3
8 8 7 7 6 4 6 6 6 5 5 6 4 4 4 5 5 5 5 4 4 4 3 4 5 4 4 3 3 3 3 4 4 4 3 3 3 2 3 4 4 4 4 4 4 3 3 4 4 2 2 2 3 3 3 1 1 3 3 3 3 2
11 11 9 9 8 7 6 5 6 5 4 5 3 4 5 4 5 4 5 5 5 4 3 3 5 5 4 3 3 3 4 4 4 3 4 3 3 2 3 4 5 5 5 6 5 5 4 4 4 3 2 3 3 3 2 1 1 2 2 3 2 2
11 13 11 9 8 9 7 7 6 6 5 4 4 4 5 5 4 4 4 5 2 3 3 3 6 7 5 4 3 4 3 2 2 3 3 5 3 2 3 3 5 5 6 6 6 5 4 4 4 3 2 3 2 3 3 2 1 2 3 3 2 2
13 12 11 8 6 7 8 6 6 6 5 4 5 5 4 3 3 3 3 4 6 7 4 3 5 5 7 5 5 4 3 3 3 4 3 3 4 2 1 3 4 4 4 5 6 4 4 5 4 3 3 3 3 3 2 3 2 1 2 2 2 2
10 7 6 5 5 4 5 5 4 4 4 4 4 3 3 2 2 2 2 2 3 3 6 6 5 6 5 4 4 4 5 4 3 3 3 3 5 5 4 1 2 4 2 3 4 4 5 5 4 4 4 4 4 4 4 4 3 3 3 3 1 2
6 8 7 6 4 4 4 5 4 3 3 3 2 2 1 2 2 2 2 2 3 3 5 6 7 7 5 5 5 4 4 4 4 4 4 4 4 5 5 6 3 3 2 3 4 4 5 5 4 5 4 4 4 4 4 4 4 4 4 2 2 2
11 10 9 8 7 6 5 5 5 4 4 3 3 2 3 3 3 3 3 2 2 3 5 5 5 5 5 6 5 5 4 4 4 4 4 4 4 4 5 8 5 4 2 3 4 5 5 5 5 4 4 4 4 3 4 3 3 4 4 4 3 4
9 9 7 8 8 8 7 6 6 5 4 3 3 3 3 3 3 2 3 3 3 4 5 6 5 5 5 5 5 5 4 4 5 5 5 4 3 3 3 5 8 2 2 4 4 5 5 4 4 4 3 3 3 3 3 3 3 3 3 4 3 4
7 9 9 10 9 8 8 6 5 5 4 3 3 3 3 3 3 3 3 4 4 4 5 6 6 6 6 5 5 5 4 5 5 5 5 5 4 3 3 3 9 8 5 1 2 4 4 3 3 2 2 2 2 3 3 3 2 3 3 3 3 3
3 7 8 8 8 7 7 7 7 6 5 4 3 4 4 3 3 4 4 4 4 4 5 5 6 6 6 6 6 5 5 5 5 5 6 5 4 4 5 6 10 10 4 2 3 3 4 4 4 4 4 3 2 3 5 3 3 3 2 4 4 3
3 5 7 7 6 7 7 6 4 5 5 4 4 4 4 3 3 4 5 4 3 3 5 5 5 5 6 6 6 6 6 5 5 5 5 6 6 6 5 6 9 8 8 5 4 4 4 5 5 4 3 3 4 4 4 4 4 2 4 4 3 2
4 5 4 6 7 6 4 4 5 5 5 5 4 4 4 3 3 3 4 4 4 3 4 5 5 5 5 5 6 6 5 5 4 4 5 7 8 8 7 6 7 8 5 6 5 6 5 5 4 3 3 3 2 3 3 3 3 5 4 3 3 4
4 5 4 5 6 5 4 4 4 5 5 5 4 3 4 4 4 5 5 5 5 4 5 5 6 6 5 5 5 5 5 4 4 5 5 6 7 7 6 6 5 5 6 4 4 4 5 3 2 3 2 3 3 3 3 4 5 6 5 4 3 3
4 4 4 4 5 6 7 7 7 6 4 4 5 4 5 5 6 7 5 3 4 5 5 5 6 6 5 6 5 6 6 5 5 4 5 5 5 5 5 5 5 7 7 6 4 3 2 2 2 4 4 1 2 1 4 4 5 5 4 5 5 5
4 5 4 6 7 8 8 8 7 7 7 7 5 4 4 5 4 6 6 4 3 3 5 5 5 5 6 6 5 4 5 5 5 5 4 5 5 5 5 4 5 5 6 5 6 4 3 2 2 1 1 4 2 3 2 6 6 5 2 5 6 6
5 6 7 7 8 7 7 8 7 7 6 5 5 4 4 4 4 4 5 3 4 3 3 5 5 5 5 5 5 5 5 5 4 4 4 4 5 6 5 5 5 4 5 4 5 6 5 3 2 3 1 3 2 0 5 5 5 6 4 5 6 8
6 6 6 7 8 6 6 6 6 6 6 6 6 3 2 2 3 3 3 4 4 4 4 4 4 4 5 5 5 5 5 4 3 3 3 4 5 5 6 5 4 4 4 4 5 4 6 6 5 3 2 0 0 1 2 6 4 8 7 5 7 7
1 4 4 4 5 5 7 6 6 6 5 5 5 6 4 3 3 3 4 4 3 3 4 4 4 4 4 4 4 5 4 4 3 3 3 4 5 5 5 5 5 4 4 3 4 4 5 6 6 5 3 4 3 3 2 2 3 3 6 7 7 8
5 4 3 5 6 5 6 6 6 6 6 4 6 6 4 4 4 3 6 4 4 4 4 4 4 4 3 3 3 3 3 3 2 2 2 3 3 5 5 5 5 5 4 4 3 3 5 5 5 6 5 4 4 4 4 3 3 3 7 8 7 8
7 3 1 5 5 6 6 6 6 6 8 6 6 6 5 5 4 3 6 4 3 3 3 3 4 4 3 3 2 3 3 3 2 2 1 3 3 4 4 4 4 3 4 5 3 4 4 5 4 6 4 5 5 6 6 5 4 5 4 4 8 8
5 3 2 1 4 7 6 5 6 6 7 8 7 7 7 5 5 5 5 4 3 3 2 3 3 3 3 3 3 4 4 4 3 2 3 3 3 3 3 4 4 6 6 6 4 5 6 5 5 5 5 5 5 4 4 5 4 4 5 6 8 8
7 6 4 3 3 3 4 4 5 6 7 6 7 6 6 6 5 6 5 4 3 3 3 3 3 3 3 3 3 4 4 4 3 3 3 3 3 3 4 4 4 5 5 6 7 7 6 6 4 4 3 3 4 4 4 4 4 3 4 7 8 9
5 3 3 7 9 8 7 6 6 6 6 5 5 6 6 6 4 5 4 4 3 4 3 3 2 3 4 4 3 3 3 3 3 2 3 3 3 3 3 4 5 6 6 7 6 7 6 6 5 6 5 3 4 5 5 4 4 4 3 5 7 9
11 9 10 8 6 6 5 5 6 7 8 7 6 5 4 5 4 3 3 3 3 4 4 3 3 4 3 2 3 3 3 3 3 3 3 3 4 3 3 4 5 5 6 5 5 6 6 6 5 5 4 5 5 5 4 3 4 4 4 6 7 8
13 13 9 4 7 9 6 6 4 3 4 6 7 6 4 4 4 4 2 2 2 2 3 3 3 3 3 3 3 2 3 4 3 3 3 3 3 3 3 4 5 5 5 4 5 5 5 6 5 5 5 5 5 5 4 4 3 4 4 4 6 8
15 12 9 10 9 8 8 7 9 8 7 6 5 5 6 5 4 4 2 1 1 2 2 3 3 4 3 2 2 3 4 4 3 3 3 3 3 3 3 5 5 5 5 2 5 6 5 5 5 6 6 5 5 6 4 4 4 4 5 5 4 2
8 7 10 11 11 10 7 5 8 9 9 7 5 7 6 6 5 4 1 2 1 2 3 2 3 3 4 3 2 2 3 4 4 3 3 4 4 4 4 5 5 5 5 3 4 5 3 4 5 5 5 5 6 5 4 4 4 4 4 4 4 3
Wind_Direction
112 100 141 141 135 105 93 164 164 164 155 142 135 137 139 141 145 145 143 111 108 128 137 137 144 138 136 135 114 119 134 133 134 134 132 126 123 121 115 110 103 100 95 89 89 100 93 54 31 40 85 156 165 199 168 153 150 141 158 142 165 126
108 165 155 125 131 134 175 192 181 162 159 146 138 144 148 153 150 155 131 143 151 139 138 128 119 122 125 132 137 140 144 140 139 138 132 129 125 123 122 117 114 108 105 99 95 106 108 54 33 54 53 103 198 189 164 169 173 151 146 155 168 101
119 97 132 137 140 152 170 130 163 167 164 143 149 148 152 154 165 165 167 165 149 150 145 135 131 137 129 93 105 102 145 145 145 141 139 135 133 129 123 124 120 111 107 120 109 90 96 100 103 40 59 152 168 198 172 169 175 170 168 118 189 93
114 119 131 128 120 142 140 123 127 170 140 135 138 152 148 158 167 167 165 167 160 165 157 143 135 130 126 129 103 111 110 132 140 135 142 150 142 133 126 115 114 122 142 122 94 108 104 106 81 44 49 163 166 151 210 190 207 172 172 140 133 104
117 111 145 143 137 134 114 102 58 338 136 151 151 149 156 166 174 172 177 177 173 166 166 151 139 144 128 134 149 150 146 151 129 150 148 145 142 115 127 113 109 128 94 103 94 87 87 96 83 55 85 1 346 217 214 199 197 190 153 136 100 111
68 42 5 97 114 116 127 118 132 192 216 166 163 158 156 169 181 184 187 193 177 162 157 152 142 149 149 161 166 163 137 128 131 148 137 103 109 130 127 110 116 98 84 90 94 85 85 75 85 12 18 27 348 243 215 200 175 159 113 136 114 124
47 71 352 101 117 123 141 135 155 182 189 179 170 168 169 181 188 193 194 199 194 180 169 163 159 164 166 173 174 165 146 144 140 153 148 159 150 139 133 127 121 111 109 109 101 102 112 111 87 120 23 7 14 122 214 205 140 100 87 102 98 113
75 51 3 343 336 156 137 140 170 188 188 179 177 182 178 193 194 196 198 206 211 192 171 163 170 172 168 168 170 161 157 161 158 155 151 173 150 143 138 129 119 120 115 101 100 105 115 120 132 198 147 340 354 12 248 51 65 60 68 77 97 121
121 109 78 308 299 327 178 164 188 193 186 187 191 192 185 189 200 200 203 208 209 185 165 166 167 162 158 167 156 163 171 172 174 170 165 160 160 151 147 125 119 117 109 98 96 104 123 127 148 179 178 193 195 105 77 66 74 91 87 57 31 87
121 123 143 176 206 235 211 202 198 194 195 198 200 203 187 196 203 207 208 208 209 203 177 169 163 158 165 157 150 155 189 186 174 182 175 162 159 165 142 133 126 117 108 99 92 103 132 127 125 81 38 36 74 22 51 94 133 107 72 60 59 101
163 161 167 177 195 196 224 215 209 195 201 205 196 200 208 205 203 212 216 207 210 213 186 164 156 156 155 135 143 157 180 190 177 178 171 157 164 160 137 133 128 120 110 101 94 97 110 116 114 87 34 50 63 54 57 14 66 55 78 68 53 53
172 177 176 172 186 197 210 220 215 211 207 208 197 213 214 210 211 217 214 206 205 208 185 161 155 137 108 139 166 183 197 205 187 168 169 159 162 156 145 122 118 109 107 107 108 103 97 97 95 97 110 98 90 111 122 162 102 136 99 57 57 66
177 183 181 176 166 179 195 208 215 215 209 193 203 219 222 214 214 212 214 220 142 237 187 139 107 111 144 176 195 207 215 200 181 167 184 166 154 148 138 134 122 124 121 121 118 117 112 95 92 84 81 88 114 94 95 107 97 150 114 118 150 46
185 186 176 160 152 164 182 200 210 202 200 193 217 226 229 215 202 188 194 204 174 190 155 141 151 147 154 167 181 200 204 199 178 170 156 143 126 62 64 135 133 137 137 138 123 132 115 93 93 104 98 84 72 75 104 113 99 53 76 121 59 64
192 176 123 128 152 156 179 202 193 177 172 191 194 216 215 197 180 166 178 183 192 179 154 178 175 186 167 163 182 187 199 194 162 133 137 151 133 119 95 7 119 130 121 97 113 107 100 94 90 87 80 86 84 82 72 72 73 60 44 26 68 98
163 122 149 158 164 181 186 205 200 163 169 164 160 160 126 79 76 102 125 148 166 166 164 179 177 180 166 168 176 180 186 173 150 141 161 140 127 142 141 117 214 111 125 116 121 113 111 109 94 85 67 70 86 94 98 90 79 78 77 85 68 60
161 157 154 151 159 182 175 174 179 160 146 138 138 133 119 109 85 89 111 122 138 150 171 180 177 170 163 159 161 170 183 167 154 151 160 153 171 164 160 155 116 92 211 161 139 121 128 122 111 98 98 83 64 58 67 70 81 82 88 72 60 66
160 157 149 151 165 161 149 134 135 130 124 129 125 97 91 91 104 104 116 120 140 150 163 178 178 161 147 150 150 163 174 164 147 139 139 145 141 160 162 151 121 136 264 141 140 141 136 131 132 129 110 88 71 48 47 46 55 66 79 89 83 54
156 144 144 145 141 118 115 108 105 116 122 123 97 84 80 92 92 111 121 138 155 171 158 159 149 143 136 141 150 159 166 159 142 135 142 142 142 147 155 132 120 133 249 238 148 141 133 130 123 135 108 71 91 92 75 63 40 42 40 44 55 64
179 133 126 128 134 130 130 129 130 134 115 87 83 72 72 84 106 110 126 141 144 145 143 148 140 143 138 144 149 152 153 151 140 141 141 143 138 158 160 125 110 125 162 184 136 133 131 125 118 117 122 117 99 79 74 67 54 45 35 39 35 26
156 136 141 136 137 144 140 133 126 116 109 111 105 102 93 81 77 97 114 116 137 132 132 133 133 137 136 140 144 145 143 147 148 147 142 137 141 137 136 131 122 132 141 137 128 132 136 145 135 122 129 117 95 67 68 66 70 59 42 38 24 21
154 141 140 139 142 146 149 140 131 124 119 118 125 114 102 91 83 92 116 116 115 114 128 133 136 134 135 141 142 143 143 142 139 119 111 123 131 136 141 140 134 124 142 145 143 152 152 166 167 175 171 149 144 96 77 72 63 46 41 40 11 359
149 133 138 142 144 131 110 84 100 118 116 102 62 73 95 103 114 112 112 117 113 111 119 122 129 131 131 131 128 128 126 124 119 121 124 130 134 139 142 145 152 134 136 139 126 155 169 227 173 174 176 181 159 170 122 109 82 49 34 32 16 16
125 118 135 133 101 88 85 81 73 91 81 86 111 105 110 128 126 115 102 97 97 106 108 110 116 120 120 119 122 124 127 124 119 119 126 134 139 146 156 159 160 147 147 147 158 153 185 203 237 163 175 229 108 224 135 94 83 51 51 54 46 42
118 133 145 129 116 115 109 96 94 89 97 98 100 108 113 91 91 110 109 88 85 105 112 108 107 108 112 116 115 112 115 119 125 134 144 147 154 157 166 177 170 165 175 163 160 151 152 180 161 326 199 131 160 195 110 117 113 85 63 76 60 61
148 157 156 145 139 136 132 128 130 131 131 125 123 127 108 106 104 78 78 91 88 77 91 106 111 113 112 117 122 124 123 125 132 144 149 141 139 139 147 160 164 167 154 155 150 154 146 155 168 186 281 354 350 119 151 151 187 122 106 75 64 63
163 160 155 146 144 128 123 131 140 140 138 136 126 96 90 90 100 100 94 81 86 88 94 107 104 109 121 127 130 134 137 137 138 142 140 144 138 142 148 153 153 168 152 144 151 149 154 151 143 143 144 57 6 341 97 157 159 136 133 89 61 62
33 68 58 95 125 129 130 137 128 116 114 120 123 128 130 109 98 103 87 76 76 71 78 91 113 119 124 133 135 140 145 141 143 130 142 140 139 141 144 149 162 154 151 162 160 159 156 162 165 135 132 127 122 111 79 43 154 184 140 131 104 85
40 43 98 116 135 152 145 145 133 127 120 114 118 122 121 117 109 102 90 73 67 71 70 68 79 102 108 126 142 144 140 138 122 111 122 119 122 134 144 151 159 163 166 157 142 136 151 156 150 145 145 136 145 118 104 79 87 117 128 127 116 115
50 35 9 144 143 144 139 136 135 138 133 134 129 125 126 114 101 93 89 80 82 74 70 79 75 73 86 97 107 117 124 107 95 96 98 96 110 127 140 147 153 153 151 133 122 143 139 136 139 150 150 138 128 119 115 110 94 103 92 121 140 140
17 48 339 305 139 137 138 147 141 147 137 133 130 128 125 113 114 111 103 89 83 79 62 73 82 82 73 84 90 84 90 99 93 96 110 125 131 129 130 128 131 134 133 131 128 116 119 120 124 132 144 147 145 149 142 140 141 141 139 129 130 131
3 5 9 2 56 105 130 139 143 143 138 136 138 136 130 127 124 118 113 109 105 103 90 82 76 83 71 59 75 80 78 89 97 106 104 105 110 116 119 122 124 123 115 108 120 125 125 129 130 122 117 112 98 99 107 119 118 131 144 145 144 139
145 21 304 213 179 165 155 156 155 140 131 133 129 125 121 117 115 116 114 116 125 115 116 107 80 83 67 52 56 85 90 92 103 90 101 103 99 103 110 109 108 106 109 115 120 127 129 130 132 127 120 100 108 105 102 97 118 117 100 119 135 132
130 162 212 241 242 153 131 141 157 147 140 137 125 115 115 120 109 97 107 119 133 130 126 110 102 78 64 58 62 61 80 80 74 93 91 94 98 99 101 110 107 101 98 95 106 108 112 113 101 106 121 120 109 109 107 112 116 125 129 139 138 134
171 191 167 111 27 28 43 67 53 58 100 121 131 132 115 96 101 106 85 95 107 119 122 104 96 89 70 59 64 72 67 78 71 73 82 90 88 88 82 90 90 91 95 104 112 113 117 123 121 125 115 117 118 114 113 115 107 94 101 114 135 141
185 182 151 121 137 154 157 169 148 135 122 113 98 105 104 92 81 54 23 114 139 114 90 104 96 102 78 71 69 81 88 76 70 67 64 71 78 91 85 93 96 94 96 85 108 111 114 113 113 116 116 118 116 108 108 102 94 80 78 78 96 143
201 139 140 146 165 182 152 134 119 100 89 75 81 90 83 93 105 102 52 317 130 114 109 111 106 99 101 84 77 69 88 92 84 87 84 75 76 78 73 78 85 87 87 76 90 97 97 113 114 118 120 114 108 112 99 85 83 85 85 80 76 70